Погода в Залари

Россия / Иркутская область     53°33′12″N   102°29′49″E
темп.,
°C
ветер,
м/с
пор.,
м/с
влажн.,
%
обл.,
%
осадки,
мм/ч
давл.,
гПа
погр.,
м
23 января, вс
вс2323:00−13ссз1297100 0.4 103465
02:00−13зсз1397100 1.0 1034129
05:00−13зсз2596100 0.6 1033224
08:00−13зсз3696100 0.9 1034253
11:00−12зсз3694100 0.4 1034334
14:00−11зсз3591100 0.8 1033504
17:00−11сз3695100 0.3 1033460
20:00−12зсз3796100 0.6 1034315
24 января, пн
пн2423:00−13зсз2696100 0.3 1034228
02:00−13зсз2696100 0.4 1034210
05:00−14зсз3796100 0.3 1034251
08:00−14зсз2696100 0.5 1034208
11:00−14зсз3695100 0.2 1035245
14:00−12сз3690100 0.3 1034456
17:00−12сз2595100 0.1 1034326
20:00−14зсз1198100 0.2 103622
25 января, вт
вт2523:00−15з1198100 0.1 103626
02:00−15з1298100 0.3 103639
05:00−15з1398100 0.1 103665
08:00−16з119877 0.2 103721
11:00−15зсз129794 0.0 103766
14:00−12ссз119074 0.0 1035224
17:00−16св11986 0.0 10369
20:00−22юв1110082 0.0 10389
26 января, ср
ср2623:00−24юв1110099 0.0 10399
02:00−26юв11100100 0.0 10399
05:00−28вюв11100100 0.0 10409
08:00−28юв11100100 0.0 104012
11:00−21вюв23100100 0.0 103994
14:00−15вюв249193 0.0 1036295
17:00−18в1197100 0.0 10379
20:00−23в11100100 0.0 10399
27 января, чт
чт2723:00−21всв1199100 0.0 103915
02:00−20всв1199100 0.0 103922
05:00−18всв0198100 0.0 103923
08:00−19ююв1199100 0.1 103918
11:00−17ю1194100 0.1 1040149
14:00−14юз0092100 0.6 1039320
17:00−14зсз1195100 0.5 1039216
20:00−15зюз1198100 0.9 104030